Location: Johnson City
(36.3130°N, 82.3540°W)
Time: 14:05:30
(UTC-05:00)

N. Korean satellite - Visible Passes

Search period start: 12 December 2018 00:00
Search period end: 22 December 2018 00:00
Orbit: 456 x 511 km, 97.2° (Epoch: 12 December)

Date Brightness Start Highest point End Pass type
(mag) Time Alt. Az. Time Alt. Az. Time Alt. Az.
12 Dec 6.8 06:39:56 10° NNE 06:43:29 74° E 06:47:06 10° S visible
12 Dec 9.3 18:47:22 10° SW 18:50:00 21° W 18:52:39 10° NW visible
13 Dec 8.6 06:15:40 10° NNE 06:18:54 32° E 06:22:11 10° SSE visible
13 Dec 7.6 18:22:04 10° S 18:25:21 45° W 18:28:41 10° NNW visible
14 Dec 9.8 05:52:01 10° NE 05:54:14 15° E 05:56:27 10° SE visible
14 Dec 6.3 17:57:23 10° SSE 18:00:47 73° ENE 18:04:12 10° N visible
15 Dec 6.7 06:59:40 10° N 07:03:12 56° WNW 07:06:45 10° SSW visible
15 Dec 10.0 19:08:47 10° WSW 19:09:50 11° W 19:10:53 10° WNW visible
16 Dec 7.1 06:35:05 10° NNE 06:38:40 63° E 06:42:16 10° S visible
16 Dec 9.0 18:42:18 10° SSW 18:45:06 23° W 18:47:56 10° NW visible
17 Dec 8.8 06:10:53 10° NE 06:14:02 28° E 06:17:14 10° SSE visible
17 Dec 7.3 18:17:07 10° S 18:20:27 54° W 18:23:50 10° NNW visible
18 Dec 9.9 05:47:25 10° ENE 05:49:21 14° E 05:51:16 10° SE visible
18 Dec 6.4 17:52:32 10° SSE 17:55:53 61° ENE 17:59:17 10° N visible
19 Dec 6.6 06:54:43 10° N 06:58:20 66° WNW 07:01:58 10° SSW visible
19 Dec 9.9 19:03:15 10° WSW 19:04:53 13° W 19:06:31 10° WNW visible
20 Dec 7.5 06:30:11 10° NNE 06:33:46 54° E 06:37:22 10° S visible
20 Dec 8.8 18:37:12 10° SSW 18:40:09 27° W 18:43:09 10° NW visible
21 Dec 9.1 06:06:05 10° NE 06:09:08 25° E 06:12:12 10° SSE visible
21 Dec 6.9 18:12:08 10° S 18:15:31 64° W 18:18:56 10° NNW visible
